IRIDIUM 33 DEB, 33887

Orbit data source: Space-Track

IRIDIUM 33 DEB, 33887 is space debris in LEO originally from a launch on Sun, 14 Sep 1997 UTC launched from the Tyuratam Missile And Space Complex (TTMTR). The debris from Iridium 33, an American commercial communications satellite, has been tracked extensively since its accidental collision with the defunct Russian satellite Cosmos 2251 in 2009. This event, occurring at high speed in low Earth orbit (LEO), generated thousands of pieces of space debris, significantly increasing the risk of further collisions. The Iridium 33 debris cloud has impacted space traffic management and orbital debris mitigation strategies, making it a subject of ongoing study in space situational awareness.

Loading next visibility...
Identifier
33887, 1997-051BG
Orbit
LEO
Country
Flag of USUS
Related business
Manufacturer
Unknown
Mission
Spacecraft
Bus & Motor
Unknown
Mass
Unknown
Launch date (UTC)
1997-09-14 (29 years ago)
Launch vehicle
Unknown
Launch site
Tyuratam Missile And Space Complex (TTMTR)
Object type
Payload
Rocket body
Debris
Shape & HBR
Unknown shape, 0.2 m
Radar Cross Section
Medium (>0.1 m² and <1 m²)

Expand to show TLE details & history
Last TLE update: 16 hours ago

TLE from 16 hours ago
0 IRIDIUM 33 DEB
1 33887U 97051BG  26267.24792889  .00000298  00000-0  92885-4 0  9998
2 33887  86.3011 240.3235 0007605  41.9800  22.6958 14.37447171922665
Epoch: 2026-09-24T05:57Z
TLE epoch observation values (Epoch: 2026-09-24T05:57:01.056Z)
Latitude
64.54519°
Longitude
155.74543°
Altitude
773.145 km
Speed
7.476 km/s
True Right ascension
16h 32m 20s
True Declination
64° 24' 42"
Sunlit
Object was in daylight at epoch
Visualization orbit readout
Latitude
Unknown
Longitude
Unknown
Altitude
Unknown
Speed
Unknown
Apparent Right ascension
Unknown
Apparent Declination
Unknown
Sunlit
N/A
Visualization observer readout
Local Sidereal Time
15:06:18
Azimuth
Unknown
Elevation
Unknown
Doppler factor
Unknown
Orbital elements
Apogee altitude
769.339 km
Perigee altitude
758.476 km
Semi-major axis
7,142.044 km
Eccentricity
0.00076
Inclination
86.3011°
RAAN
240.3235°
Arg. of periapsis
41.98°
True anomaly
22.72945°
Mean anomaly
22.6958°
Eccentric anomaly
22.71262°
Mean motion
3.59591 °/min
Orbital period
100.11 mins
BSTAR
0.000092885

Documentation

Showing up to 5 results
|